Regional Weather Roundup
Issued by NWS

Home | Current Version | Previous Version | Graphics & Text | Print | Product List | Glossary On
Versions: 1 2 3 4 5 6 7 8 9 10 11 12 13 14 15 16 17 18 19 20 21 22 23 24 25 26 27 28 29 30 31 32 33 34 35 36 37 38 39 40 41 42 43 44 45 46 47 48 49 50
000
ASUS45 KABQ 011610
RWRNM
NEW MEXICO REGIONAL WEATHER ROUNDUP
NATIONAL WEATHER SERVICE ALBUQUERQUE NM
1000 AM MDT TUE SEP 01 2015

NOTE: "FAIR" MEANS FEW OR NO CLOUDS BELOW 12,000 FEET AGL WITH NO
       SIGNIFICANT WEATHER OR OBSTRUCTIONS TO VISION.

      THIS PRODUCT IS RELEASED AS TWO VERSIONS.  ONE VERSION NEAR
      THE TOP OF THE HOUR CONTAINING PRELIMINARY DATA FROM ALBUQUERQUE
      AND OTHER STATIONS.  A FINAL VERSION WITH ADDITIONAL DATA IS
      ISSUED ABOUT 10 MINUTES AFTER THE HOUR.

NMZ501-503-504-510>518-011700-
NORTHWEST PLATEAU/NORTHCENTRAL MOUNTAINS

CITY           SKY/WX    TMP DP  RH WIND       PRES   REMARKS
FARMINGTON     SUNNY     71  50  47 VRB3      30.22R
LOS ALAMOS     CLOUDY    69  47  46 CALM      30.33R
SANTA FE       SUNNY     77  45  32 N9        30.26R
TAOS           CLOUDY    70  43  37 SW3       30.34R
ANGEL FIRE     FAIR      57  51  81 CALM      30.40S

$$
NMZ402-403-502-505>509-011700-
WESTCENTRAL MOUNTAINS/SOUTHWEST MOUNTAINS

CITY           SKY/WX    TMP DP  RH WIND       PRES   REMARKS
GALLUP         CLOUDY    64  52  64 E3        30.30R
GRANTS         CLOUDY    64  53  67 N5        30.32S
SILVER CITY      N/A     75  50  41 CALM      30.22R

$$
NMZ407-409-411-412-011700-
SOUTHERN DESERTS

CITY           SKY/WX    TMP DP  RH WIND       PRES   REMARKS
LORDSBURG      FAIR      72  59  64 W9        30.15
DEMING         MOSUNNY   75  58  55 VRB3      30.14R
LAS CRUCES     MOSUNNY   80  49  33 CALM      30.14S
HOLLOMAN AFB   MOSUNNY   83  49  30 VRB1      30.08R
ALAMOGORDO     MOSUNNY   81  46  30 CALM      30.11R
T OR C         SUNNY     82  49  31 VRB5      30.15S

$$
NMZ519>523-011700-
CENTRAL VALLEYS/CENTRAL HIGHLANDS

CITY           SKY/WX    TMP DP  RH WIND       PRES   REMARKS
ALBUQUERQUE    MOSUNNY   77  48  35 CALM      30.21S
DOUBLE EAGLE   PTSUNNY   75  48  38 CALM      30.25R
MORIARTY ARPT  FAIR      76  45  32 N12G17    30.26S
CLINES CORNERS SUNNY     73  46  38 NW14      30.28R
BELEN          CLOUDY    76  47  34 CALM      30.21R
SOCORRO        FAIR      77  48  36 CALM      30.17S

$$
NMZ524>526-539-540-011700-
SOUTHCENTRAL MOUNTAINS

CITY           SKY/WX    TMP DP  RH WIND       PRES   REMARKS
RUIDOSO        SUNNY     75  46  35 MISG      30.31S

$$
NMZ527>531-011700-
NORTHEAST HIGHLANDS/NORTHEAST PLAINS

CITY           SKY/WX    TMP DP  RH WIND       PRES   REMARKS
LAS VEGAS      SUNNY     74  46  36 NE3       30.27S
RATON          MOSUNNY   74  49  41 CALM      30.21S
CLAYTON        SUNNY     80  56  43 N6        30.12S

$$
NMZ532>537-011700-
EASTCENTRAL PLAINS

CITY           SKY/WX    TMP DP  RH WIND       PRES   REMARKS
TUCUMCARI      SUNNY     84  52  33 VRB6      30.07S
CANNON AFB     SUNNY     80  55  41 S15       30.13R
CLOVIS AIRPORT SUNNY     81  55  41 S15       30.14R

$$
NMZ028-029-538-011700-
SOUTHEAST PLAINS

CITY           SKY/WX    TMP DP  RH WIND       PRES   REMARKS
ROSWELL        SUNNY     79  56  45 S13       30.09R
ARTESIA        SUNNY     79  57  47 S15       30.09R
CARLSBAD       NOT AVBL


$$



USA.gov is the U.S. government's official web portal to all federal, state and local government web resources and services.